User: anonymous   Login
Location: Unspecified
(0.0000°N, 0.0000°E)
Time: 22:25:21
(UTC+00:00)
Language:

In-Cosmos 22 - Orbit

View from above orbital plane
View from above orbital plane
View from above satellite
View from above satellite

Ground track
Ground track

The orbit data is extracted from the following two-line orbital elements,

1 12645U 81075A   22228.79639333  .00000019  00000-0  32806-5 0  9992
2 12645  81.2195 154.0994 0062301 266.2808  93.1242 14.18442149121487
Epoch (UTC): 16 August 2022 19:06:48
Eccentricity: 0.0062301
inclination: 81.2195°
perigee height: 786 km
apogee height: 875 km
right ascension of ascending node: 154.0994°
argument of perigee: 266.2808°
revolutions per day: 14.18442149
mean anomaly at epoch: 93.1242°
orbit number at epoch: 12148

The dashed part of the orbit path shows where the satellite is in the earth's shadow,  

DLR